OBJECT E, 44314

Orbit data source: Space-Track

You're viewing an Uncataloged Satellite

Recently launched and/or uncataloged satellites may have evolving metadata. Metadata may include but not limited to: Owner, Maufacturer, Bus, Motor, and Mission.

OBJECT E, 44314 is a satellite owned by CAST (CN) in LEO that was launched on Wed, 05 Jun 2019 UTC via a CHANG ZHENG 11 launch vehicle from the Yellow Sea Launch Area, China (YSLA). Unknown objects in Earth's orbit typically refer to objects detected orbiting the Earth but have not yet been identified or cataloged. These objects could be anything from previously untracked satellites, spent rocket stages, debris from satellite collisions, or even natural meteoroids temporarily captured by Earth's gravity.

Loading next visibility...
OBJECT E details
Identifier
44314, 2019-032E
Orbit
LEO
Last TLE update9 hours ago
Origin
Flag of CNCAST (CN / PRC)
ManufacturerCAST?
MissionOperational Commercial Weather
Bus & MotorBF, Unknown motor
Mass~10 kg wet, ~10 kg dry
Launch date (UTC)
2019-06-05 (6 years ago)
Launch vehicle
CHANG ZHENG 11
Launch site
Yellow Sea Launch Area, China (YSLA)
Object typeUnknown
Shape & HBRBox, 0.3 m
Radar Cross Section0.105 m², Medium (>0.1 m² and < 1m²)

Expand to show TLE details & history

TLE from 9 hours ago
0 OBJECT E
1 44314U 19032E   24361.22587305  .00018421  00000-0  87208-3 0  9993
2 44314  44.9840  41.5543 0009138  90.8203 269.3723 15.19108085305752
Epoch: 2024-12-26T05:25Z
Definitive object data (Epoch: 2024-12-26T05:25:15.431Z)
Latitude-0.00006°
Longitude-134.96837°
Altitude508.606 km
Speed7.611 km/s
True Right ascension02h 46m 13s
True Declination0° 00' 00"
Sunlit
Object was in full shadow at TLE epoch
Visualization TLE readout
Latitude-1.219°
Longitude44.29317°
Altitude508.513 km
Speed7.611 km/s
Apparent Right ascension17h 03m 26s
Apparent Declination-56° 56' 30"
Sunlit
Object is in daylight
Visualization observer readout
Local Sidereal Time13:28:12
Azimuth152.606° SSE
Elevation-16.902°
Doppler factor1
Orbital elements
Apogee altitude516.435 km
Perigee altitude503.846 km
Semi-major axis6,888.278 km
Eccentricity0.0009138
Inclination44.984°
RAAN41.5543°
Arg. of periapsis90.8203°
True anomaly269.26759°
Mean anomaly269.3723°
Eccentric anomaly269.31995°
Mean motion3.79645 °/min
BSTAR0.00087208
Orbital period94.83 mins
Loading maneuver chart data...
Loading historical data...
Loading historical data...
Loading historical data...
Loading historical data...
Loading historical data...
Loading historical data...
Loading historical data...

OBJECT E Visibility forecast

Observer location: undefined°, undefined

Span
Click to sort rows by Start time (UTC) header in descending order
Start Az.
Max El. time (UTC)
Max El. Az.
Max El.
End time (UTC)
End Az.
5 mins2024-12-27 05:16:25.117Z189.874° SSW2024-12-27 05:19:25.117Z130° SE21.09°2024-12-27 05:21:25.117Z94.649° ESE
6 mins2024-12-27 06:55:25.117Z253.206° W2024-12-27 06:58:25.117Z37.149° NE42.593°2024-12-27 07:01:25.117Z64.535° ENE
5 mins2024-12-27 08:35:25.117Z297.43° NW2024-12-27 08:37:25.117Z345.974° N31.457°2024-12-27 08:40:25.117Z60.331° ENE
5 mins2024-12-27 10:15:25.117Z307.694° NW2024-12-27 10:17:25.117Z12.219° NNE38.377°2024-12-27 10:20:25.117Z89.493° E
6 mins2024-12-27 11:54:25.117Z275.506° WNW2024-12-27 11:56:25.117Z229.787° WSW33.514°2024-12-27 12:00:25.117Z140.417° SSE
|